TimeEET,TemperatureF,Dew PointF,Humidity,Sea Level PressureIn,VisibilityMPH,Wind Direction,Wind SpeedMPH,Gust SpeedMPH,PrecipitationIn,Events,Conditions,WindDirDegrees,DateUTC
12:00 AM,71.6,69.8,94,29.77,-9999.0,SW,2.3,-,N/A,,Clear,230,2013-06-22 22:00:00
1:00 AM,69.8,69.8,100,29.74,-9999.0,South,2.3,-,N/A,,Clear,180,2013-06-22 23:00:00
2:00 AM,69,69,99,29.76,6,South,2.3,,,,,180,2013-06-23 00:00:00
2:00 AM,69.8,68.0,94,29.74,-9999.0,South,2.3,-,N/A,,Clear,180,2013-06-23 00:00:00
3:00 AM,68.0,68.0,100,29.74,-9999.0,SSW,2.3,-,N/A,,Clear,210,2013-06-23 01:00:00
4:00 AM,66.2,66.2,100,29.74,-9999.0,South,2.3,-,N/A,,Clear,180,2013-06-23 02:00:00
5:00 AM,66.2,66.2,100,29.77,-9999.0,SSE,4.6,-,N/A,,Clear,160,2013-06-23 03:00:00
6:00 AM,68.0,68.0,100,29.77,6.2,South,4.6,-,N/A,,Scattered Clouds,180,2013-06-23 04:00:00
7:00 AM,73.4,73.4,100,29.77,3.7,SSE,4.6,-,N/A,,Scattered Clouds,160,2013-06-23 05:00:00
8:00 AM,79,70,68,29.79,4,WSW,2.3,,,,Mist,240,2013-06-23 06:00:00
8:00 AM,78.8,71.6,78,29.77,3.7,WSW,2.3,-,N/A,,Scattered Clouds,240,2013-06-23 06:00:00
9:00 AM,82.4,64.4,54,29.77,-9999.0,NW,4.6,-,N/A,,Clear,310,2013-06-23 07:00:00
10:00 AM,86.0,62.6,45,29.77,-9999.0,WNW,3.5,-,N/A,,Clear,300,2013-06-23 08:00:00
11:00 AM,86.0,69.8,58,29.77,-9999.0,NW,5.8,-,N/A,,Clear,310,2013-06-23 09:00:00
12:00 PM,87.8,69.8,55,29.77,-9999.0,NW,6.9,-,N/A,,Clear,310,2013-06-23 10:00:00
1:00 PM,87.8,71.6,58,29.77,-9999.0,North,6.9,-,N/A,,Clear,360,2013-06-23 11:00:00
2:00 PM,87,81,79,29.77,6,NNW,6.9,,,,,340,2013-06-23 12:00:00
2:00 PM,87.8,71.6,58,29.77,-9999.0,North,6.9,-,N/A,,Clear,350,2013-06-23 12:00:00
3:30 PM,86.0,78.8,79,29.77,-9999.0,NNW,6.9,-,N/A,,Clear,340,2013-06-23 13:30:00
5:00 PM,84.2,68.0,58,29.74,-9999.0,NW,11.5,-,N/A,,Clear,310,2013-06-23 15:00:00
6:00 PM,82.4,50.0,32,29.74,-9999.0,NNW,5.8,-,N/A,,Clear,340,2013-06-23 16:00:00
7:00 PM,78.8,71.6,78,29.74,-9999.0,NNW,4.6,-,N/A,,Clear,340,2013-06-23 17:00:00
8:00 PM,78,73,81,29.77,6,NNW,3.5,,,,,330,2013-06-23 18:00:00
8:00 PM,78.8,73.4,83,29.77,-9999.0,NNW,3.5,-,N/A,,Clear,330,2013-06-23 18:00:00
9:00 PM,77.0,71.6,83,29.77,-9999.0,NNW,4.6,-,N/A,,Clear,330,2013-06-23 19:00:00
10:00 PM,77.0,71.6,83,29.77,-9999.0,North,2.3,-,N/A,,Clear,360,2013-06-23 20:00:00
11:00 PM,73.4,69.8,88,29.77,-9999.0,North,2.3,-,N/A,,Clear,350,2013-06-23 21:00:00